Regional Weather Roundup
Issued by NWS Midland/Odessa, TX

Skip options and go directly to product.
Home | Oldest Version | Previous Version | Current Version | All | Text Only | Save Text | Print | Product List | Glossary Off

Skip product version selection by date and time.   

657
ASUS44 KMAF 260110
RWRMAF
MIDLAND AREA WEATHER ROUNDUP
NATIONAL WEATHER SERVICE MIDLAND TX
800 PM CDT SAT APR 25 2015

...IN SOUTHWEST TEXAS AND SOUTHEAST NEW MEXICO...

CITY           SKY/WX    TMP DP  RH WIND       PRES   REMARKS
ALPINE         CLEAR     73  27  18 SW6       29.92S
ANDREWS        FAIR      78  21  12 W14G22    29.76R
ARTESIA        CLEAR     77  19  11 SW21      29.74S
BIG SPRING     CLEAR     82  24  12 SW16G23   29.75S
CARLSBAD       CLEAR     78  19  11 SW15G25   29.73S
DRYDEN           N/A     85  31  14 S5        29.72S
FORT STOCKTON  CLEAR     79  25  13 SW12      29.77S
GUAD PASS      CLEAR     68  17  14 W35G45    29.86R
HOBBS          CLEAR     73  21  14 SW12G22   29.76S
MARFA          CLEAR     70  27  19 S9        29.90S
MIDLAND AIRPK  CLEAR     81  23  12 SW7       29.75S
MIDLAND INTL   CLEAR     79  26  14 SW12      29.74S
ODESSA         CLEAR     80  20  10 W13       29.75S
PECOS          CLEAR     82  26  12 W8G23     29.73S
PRESIDIO       FAIR      86  24  10 CALM      29.73S
SEMINOLE       CLEAR     76  24  14 W9        29.76S
SNYDER         CLEAR     76  39  26 SW7       29.72S
WINK           CLEAR     82  15   8 W16       29.72S
$$
...OTHER STATIONS IN TEXAS...

CITY           SKY/WX    TMP DP  RH WIND       PRES   REMARKS
ABILENE        CLEAR     79  39  23 SW8       29.70R
AMARILLO       PTCLDY    74  26  16 SW18      29.68R
AUSTIN         PTCLDY    74  64  71 S7        29.69R
BROWNSVILLE    MOCLDY    82  76  81 E6        29.69S HAZE
CORPUS CHRISTI MOCLDY    76  71  85 E10       29.71R
DALLAS FTW     CLEAR     77  54  44 SW7       29.64R
DEL RIO        CLEAR     83  55  38 SE8       29.69R
EL PASO        FAIR      77  13   9 W18G29    29.79S
HOUSTON INT    PTCLDY    80  68  66 S6        29.70S
LUBBOCK        PTCLDY    76  29  17 W14       29.71S
SAN ANGELO     CLEAR     82  34  17 NW6       29.71S
SAN ANTONIO    PTCLDY    85  56  37 S7        29.71R
WACO           CLEAR     77  66  68 CALM      29.67S
WICHITA FALLS  NOT AVBL
$$
...OTHER LOCATIONS IN NEW MEXICO...

CITY           SKY/WX    TMP DP  RH WIND       PRES   REMARKS
ALAMAGORDO     PTCLDY    73  18  12 SW18G24   29.79S
ALBUQUERQUE    MOCLDY    67  24  19 SW9G24    29.76F
CANNON AFB     CLEAR     72  28  19 W15       29.73S
CLOVIS         CLEAR     72  27  18 W18G24    29.73R
HOLLOMAN AFB   PTCLDY    74  19  12 SW16      29.77R
ROSWELL        CLEAR     77  25  14 W10       29.71S
RUIDOSO        PTCLDY    57  18  21 SW15G26   29.89F
SANTA FE       PTCLDY    61  23  23 SW6       29.80F
TRUTH OR CONSE PTCLDY    70  21  15 W10G22    29.78S
TUCUMCARI      CLEAR     73  25  16 W21G29    29.68S
$$

USA.gov is the U.S. government's official web portal to all federal, state and local government web resources and services.